Regional Weather Roundup
Issued by NWS New Orleans/Baton Rouge, LA

Home | Current Version | Previous Version | Graphics & Text | Print | Product List | Glossary On
Versions: 1 2 3 4 5 6 7 8 9 10 11 12 13 14 15 16 17 18 19 20 21 22 23 24 25 26 27 28 29 30 31 32 33 34 35 36 37 38 39 40 41 42 43 44 45 46 47 48 49 50
416
ASUS44 KLIX 241005
RWRLIX
NEW ORLEANS REGIONAL WEATHER ROUNDUP
NATIONAL WEATHER SERVICE NEW ORLEANS LA
400 AM CST MON NOV 24 2014

NOTE: "FAIR" INDICATES FEW OR NO CLOUDS BELOW 12,000 FEET WITH NO
      SIGNIFICANT WEATHER AND/OR OBSTRUCTIONS TO VISIBILITY.
      SKY/WX - SKY CONDITION AND SIGNIFICANT WEATHER.
      TMP - AIR TEMPERATURE.     DP    - DEWPOINT TEMPERATURE.
      RH  - RELATIVE HUMIDITY.   PRES  - PRESSURE.
      HI  - HEAT INDEX.          WCI   - WIND CHILL INDEX.

*  THESE STATIONS ARE NOT NWS OR FAA STATIONS AND ARE NOT UNDER
   NWS QUALITY CONTROL.

LAZ038-040-048-061>063-065>067-069-241100-
SOUTHEAST LOUISIANA

CITY           SKY/WX    TMP DP  RH WIND       PRES   REMARKS
N.O. AUDUBON   NOT AVBL
N.O. INTL ARPT CLOUDY    67  66  97 SW9       29.77R FOG
N.O. LAKEFRONT CLOUDY    68  65  90 SW13      29.77R FOG
N.O. DOWNTOWN* CLOUDY    68  64  88 SW7       29.78R
SLIDELL        CLOUDY    68  66  93 SW7       29.77R FOG
BATON ROUGE    PTCLDY    64  63  96 W9        29.76R
BOOTHVILLE     FOG       66  66 100 S8        29.79S VSB 1/4
BELLE CHASSE   PTCLDY    69  65  86 SW8       29.77R
BOGALUSA*        N/A     67  63  87 SW6       29.77R FOG
NEW ROADS*       N/A     64  61  93 W7        29.76R
GONZALES*      CLOUDY    65  65 100 CALM      29.76R FOG
HAMMOND*       PTCLDY    66  63  88 W5        29.78R
HOUMA*         MOCLDY    69  68  98 SW5       29.77R FOG
PORT FOURCHON* SUNNY     70  68  94 SW7       29.82R FOG

$$

MSZ070-080>082-241100-
SOUTHERN MISSISSIPPI

CITY           SKY/WX    TMP DP  RH WIND       PRES   REMARKS
MCCOMB         CLOUDY    64  62  93 SW7       29.75R
GULFPORT       FOG       66  65  96 SW5       29.76R VSB 1/2
BILOXI         FOG       65  65 100 SW10      29.76S VSB 1/2
PASCAGOULA     CLOUDY    68  68 100 SW7       29.77R FOG

$$

COASTAL OBSERVATIONS
LAKE AND NEARSHORE STATIONS

STATION/POSITION TIME  TEMP    WIND        PRES    WAVE
                       AIR SEA DIR/SP/G            HT/PER
                 (UTC) (F)     (DEG/KT/KT) (MB)    (FT/S)
PASCAGOULA       1000   64     230/  7/ 10 1007.5
WAVELAND YACHT   1000   67     250/  6/  9 1007.1
GRAND ISLE       1000   69 65  230/  6/  8 1009.0
SOUTHWEST PASS   1000   68                 1008.9
NEW CANAL        1000   67 56  210/  9/ 11 1008.4
SHELL BEACH      1000   65 55  220/  6/  7 1008.0

OFFSHORE STATIONS

STATION/POSITION TIME  TEMP    WIND        PRES    WAVE
                       AIR SEA DIR/SP/G            HT/PER
                 (UTC) (F)     (DEG/KT/KT) (MB)    (FT/S)
64 S DAUPHIN ISL 0925   73 72  230/ 12/ 14 1009.0    5/ 8

$$




USA.gov is the U.S. government's official web portal to all federal, state and local government web resources and services.